Flag for Germany Weather past 2 weeks in Troisdorf, North Rhine-Westphalia, Germany

Now
55 °F

Partly sunny.


Feels Like: 54 °F
Forecast: 52 / 61 °F
Wind: 6 mph from Southeast

Location: Koeln / Bonn

Current Time: Oct 25, 2014 at 4:43:20 PM

Latest Report: Oct 25, 2014 at 4:20 PM


Visibility: N/A

Pressure: 30.12 "Hg

Humidity: 94%

Dew point: 54 °F

Location of TroisdorfLocation

Historic Weather in Troisdorf — Graph

°F

Troisdorf temperature yesterday

Maximum temperature yesterday: 57 °F (at 1:50 PM)
Minimum temperature yesterday: 50 °F (at 3:20 AM)
Average temperature yesterday: 53 °F

Past Weeks' High & Low Weather Summary

 TemperatureHumidityPressure
High75 °F (Oct 19, 1:50 PM)100% (Oct 11, 3:50 AM)30.24 "Hg (Oct 11, 3:50 AM)
Low43 °F (Oct 22, 12:20 AM)46% (Oct 14, 2:50 PM)29.53 "Hg (Oct 21, 4:20 PM)
Average56 °F82%29.94 "Hg
* Reported Oct 10 3:20 PM — Oct 25 3:50 PM, Troisdorf, Weather by CustomWeather, © 2014

Note: Actual official high and low records may vary slightly from our data, if they occured in-between our weather recording intervals... More about our weather records

Advertising

Troisdorf weather history for previous 24 hours

 ConditionsComfort  
Time TempWeatherWind HumidityBarometerVisibility
3:50 PM
Oct 25
55 °FLow clouds.6 mph94%30.12 "HgN/A
3:20 PM55 °FBroken clouds.3 mph94%30.12 "HgN/A
2:50 PM55 °FBroken clouds.5 mph88%30.12 "HgN/A
2:20 PM55 °FBroken clouds.3 mph94%30.12 "HgN/A
1:50 PM55 °FPartly sunny.5 mph88%30.12 "HgN/A
1:20 PM55 °FBroken clouds.3 mph88%30.12 "HgN/A
12:50 PM54 °FBroken clouds.5 mph94%30.12 "HgN/A
12:20 PM54 °FBroken clouds.6 mph94%30.12 "HgN/A
11:50 AM54 °FPartly sunny.7 mph94%30.09 "HgN/A
11:20 AM52 °FDrizzle. Partly sunny.7 mph94%30.09 "Hg4 mi
10:50 AM52 °FDrizzle. Fog.6 mph94%30.09 "Hg2 mi
10:20 AM52 °FDrizzle. Fog.6 mph94%30.09 "Hg2 mi
9:50 AM50 °FFog.6 mph100%30.09 "Hg3 mi
9:20 AM50 °FDrizzle. Fog.6 mph100%30.09 "Hg2 mi
8:50 AM50 °FDrizzle. Fog.5 mph94%30.09 "Hg2 mi
8:20 AM50 °FDrizzle. Fog.5 mph94%30.07 "Hg2 mi
7:50 AM50 °FDrizzle. Fog.6 mph94%30.07 "Hg2 mi
7:20 AM50 °FDrizzle. Fog.6 mph94%30.07 "Hg2 mi
6:50 AM50 °FDrizzle. Fog.7 mph94%30.07 "Hg3 mi
6:20 AM50 °FDrizzle. Low clouds.6 mph94%30.07 "HgN/A
5:50 AM50 °FOvercast.6 mph94%30.04 "HgN/A
5:20 AM50 °FOvercast.7 mph94%30.04 "HgN/A
4:50 AM50 °FOvercast.6 mph94%30.04 "HgN/A
4:20 AM50 °FLight rain. Overcast.8 mph94%30.04 "HgN/A
3:50 AM50 °FLight rain. Overcast.6 mph94%30.07 "HgN/A
3:20 AM50 °FLight rain. Passing clouds.6 mph94%30.07 "HgN/A
2:50 AM52 °FLight rain. Passing clouds.5 mph82%30.07 "HgN/A
2:20 AM52 °FPassing clouds.6 mph82%30.07 "HgN/A
1:50 AM52 °FPassing clouds.6 mph82%30.07 "HgN/A
1:20 AM52 °FPassing clouds.8 mph82%30.07 "HgN/A
12:50 AM50 °FPassing clouds.6 mph88%30.07 "HgN/A
12:20 AM50 °FClear.6 mph88%30.07 "Hg10 mi
11:50 PM
Oct 24
50 °FClear.7 mph88%30.07 "Hg10 mi
11:20 PM52 °FClear.7 mph82%30.07 "Hg10 mi
10:50 PM52 °FLight rain. Mostly cloudy.7 mph82%30.07 "HgN/A
10:20 PM52 °FClear.7 mph82%30.07 "Hg10 mi
9:50 PM52 °FClear.8 mph82%30.07 "Hg10 mi
9:20 PM52 °FLight rain. Clear.7 mph82%30.07 "HgN/A
8:50 PM52 °FRain. Mostly cloudy.7 mph82%30.07 "HgN/A
8:20 PM54 °FClear.8 mph77%30.07 "Hg10 mi
7:50 PM54 °FClear.8 mph72%30.07 "Hg10 mi
7:20 PM54 °FSunny.7 mph72%30.07 "Hg10 mi
6:50 PM54 °FSunny.6 mph72%30.07 "Hg10 mi
6:20 PM55 °FSunny.7 mph67%30.07 "Hg10 mi
5:50 PM55 °FSunny.6 mph72%30.09 "Hg10 mi
5:20 PM55 °FPartly sunny.8 mph67%30.09 "HgN/A
4:50 PM55 °FPartly sunny.9 mph67%30.09 "HgN/A
4:20 PM57 °FPartly sunny.9 mph59%30.09 "HgN/A
Weather by CustomWeather, © 2014

See weather overviewHow to use our weather pages